Temperature
16 16 15 15 15 15 15 15 15 15 15 15 15 15 15 15 15 15 15 15 15 15 15 15 15 15 15 15 15 15 15 15 15 15 15 15 15 15 15 15 14 14 14
15 15 15 15 15 15 15 15 15 15 15 15 15 15 15 15 14 14 14 14 14 14 14 14 14 14 14 14 14 14 14 14 14 14 14 14 14 14 15 14 14 14 14
15 15 15 15 15 15 15 15 15 15 15 14 14 14 14 14 14 14 14 14 14 14 14 14 14 14 14 14 14 14 14 14 14 14 14 14 14 14 14 14 14 14 14
15 15 15 15 15 15 15 15 15 15 14 14 14 14 14 14 14 14 14 14 14 14 14 14 14 14 14 14 14 14 14 14 14 13 13 14 14 14 14 14 14 14 14
15 15 15 15 14 14 14 14 14 14 14 14 14 14 14 14 14 14 14 14 14 14 14 14 14 14 14 14 13 13 13 13 13 13 13 13 13 13 13 13 13 13 14
15 15 15 15 14 14 14 14 14 14 14 14 14 14 13 13 13 13 13 13 13 13 14 14 14 13 13 13 13 13 13 13 13 13 13 13 13 13 13 13 13 13 13
15 15 15 14 14 14 14 14 14 14 14 14 14 13 13 13 13 13 13 13 13 13 13 13 13 13 13 13 13 13 13 13 13 13 13 13 13 13 13 13 13 13 13
15 15 15 14 14 14 14 14 14 14 14 14 14 13 13 13 13 13 13 13 13 13 13 13 13 13 13 13 13 13 13 12 12 12 13 13 13 13 13 13 13 13 13
15 14 14 14 14 14 14 14 14 14 14 14 13 13 13 13 13 12 12 12 12 13 13 12 12 12 12 12 13 12 12 12 12 12 12 12 12 12 12 12 12 12 12
14 14 14 14 14 14 14 14 13 13 14 13 13 13 13 13 13 12 12 12 12 12 12 12 12 12 12 12 12 12 12 12 12 12 12 12 12 12 12 12 12 12 12
14 14 14 14 14 14 14 13 13 13 13 13 13 13 13 13 13 13 12 12 12 12 12 12 12 12 12 12 12 12 12 12 12 12 12 12 12 12 12 12 11 11 11
14 14 14 14 14 14 14 13 13 13 13 13 13 13 13 13 13 13 12 12 12 12 12 12 12 12 12 12 11 11 12 12 12 12 11 12 12 12 11 11 11 11 11
14 14 14 14 14 13 13 13 13 13 13 13 13 13 13 13 13 13 13 12 12 12 12 12 12 12 12 11 11 11 11 11 11 11 11 11 11 11 11 11 11 11 10
14 14 14 13 13 13 13 13 13 13 13 13 13 13 13 13 13 13 13 12 12 12 12 12 12 11 11 11 11 11 11 11 11 11 11 11 11 11 11 11 10 10 10
14 14 14 13 13 13 13 13 13 13 13 13 13 13 13 13 13 13 12 12 12 12 11 11 11 11 11 11 11 11 11 11 11 11 11 11 11 11 11 10 10 10 10
14 14 14 13 13 13 13 13 13 13 13 13 13 13 13 13 13 12 12 12 12 12 12 11 11 11 11 11 11 11 11 10 10 10 10 10 10 10 10 10 10 10 10
14 14 14 13 13 13 13 13 13 13 13 13 13 13 13 13 12 12 12 12 12 12 12 11 11 11 11 11 11 10 10 10 10 10 10 10 10 10 10 10 10 10 10
14 13 13 13 13 13 13 13 13 13 13 13 13 13 13 12 12 12 12 12 12 12 12 12 11 11 11 11 10 10 10 10 10 10 10 10 10 10 10 10 10 10 10
13 13 13 13 13 13 13 13 13 13 13 13 13 12 12 12 12 12 12 12 12 12 11 11 11 11 11 10 10 10 10 10 10 10 10 10 10 10 10 10 10 9 9
13 13 13 13 13 13 13 13 13 13 13 13 12 12 12 12 12 12 12 12 12 11 11 11 11 11 10 10 10 10 10 10 10 9 9 9 9 9 9 9 9 9 9
13 13 13 13 13 13 13 13 12 12 12 12 12 12 12 12 12 12 12 12 11 11 11 11 11 10 10 10 10 10 10 10 9 9 9 9 9 9 9 9 9 9 9
13 13 13 13 13 12 12 12 12 12 12 12 12 12 12 12 12 12 12 11 11 11 11 11 11 11 10 10 10 10 10 9 9 9 9 9 9 9 9 9 9 9 8
13 13 13 12 12 12 12 12 12 12 12 12 12 12 12 12 11 11 11 11 11 11 11 11 10 10 10 10 10 10 10 9 9 9 9 9 8 8 8 8 8 8 8
12 12 12 12 12 12 12 12 12 12 12 12 12 12 11 11 11 11 11 11 11 11 10 10 10 10 10 10 10 9 9 9 9 9 8 8 8 8 8 8 8 8 8
12 12 12 12 12 12 12 12 11 11 11 11 11 11 11 11 11 11 11 10 10 10 10 10 10 10 10 9 9 9 9 9 9 9 8 8 8 8 8 8 8 8 7
12 12 12 12 12 12 11 11 11 11 11 11 11 11 11 11 11 10 10 10 10 10 10 10 10 9 9 9 9 9 9 9 8 8 8 8 8 7 7 7 7 7 7
Wind_Speed
3 4 4 5 6 6 6 6 6 7 7 8 8 8 8 8 9 8 8 11 10 10 9 9 8 8 7 8 7 7 7 6 6 6 6 6 6 5 5 4 3 3 3
3 3 4 4 5 6 6 6 6 5 5 6 7 7 7 8 8 9 9 10 12 11 10 9 9 9 9 9 9 8 8 8 8 8 7 7 6 6 6 5 4 3 3
4 4 3 3 4 5 6 6 6 6 5 5 6 6 6 7 8 8 9 9 9 11 12 11 10 10 10 9 9 9 8 8 8 8 8 8 7 7 7 6 6 5 4
5 5 3 3 4 5 5 4 4 5 5 5 5 5 5 6 7 8 9 9 10 9 11 13 13 13 11 10 10 9 9 9 9 9 8 8 8 8 7 7 7 6 6
6 5 4 3 4 4 3 3 4 4 4 4 4 5 5 5 5 7 8 9 10 10 10 11 13 14 13 12 11 10 10 9 9 9 9 9 9 9 9 9 8 8 7
5 5 4 4 4 4 3 3 4 4 3 3 5 5 5 4 5 5 6 7 8 10 10 10 10 11 14 13 12 12 11 11 10 10 10 10 10 10 10 9 9 9 9
5 5 3 3 3 3 3 3 3 4 3 2 3 4 4 5 5 5 5 5 7 8 9 9 9 9 9 12 13 13 12 12 12 11 11 10 10 10 10 10 10 10 9
4 4 3 3 3 3 4 3 3 2 2 2 2 3 2 4 4 5 4 4 4 6 7 8 8 9 9 9 11 13 13 12 12 12 11 11 10 10 10 10 10 10 10
2 3 3 3 3 3 3 2 2 3 2 1 2 3 2 1 1 3 3 3 4 4 4 5 7 7 8 8 9 10 12 11 11 11 10 10 10 10 10 11 11 12 12
2 2 3 3 3 3 3 2 2 2 3 1 1 2 1 3 2 1 2 3 3 3 3 4 5 6 7 7 7 9 11 11 11 11 10 10 10 10 10 11 11 12 12
1 2 2 3 2 2 3 2 2 2 2 2 2 1 2 2 2 2 0 2 2 2 2 3 4 4 5 6 6 7 9 10 10 11 11 10 9 9 10 10 11 12 12
1 0 2 2 2 2 3 2 2 2 1 2 2 2 2 2 2 2 2 1 1 2 2 2 3 3 3 4 5 7 8 8 9 10 10 11 11 10 10 10 11 11 12
1 1 1 1 2 2 3 3 2 2 2 2 2 1 2 2 2 3 3 1 0 1 2 2 2 2 2 3 3 5 6 7 8 9 10 10 11 11 11 11 11 11 11
3 2 2 2 2 3 3 3 2 2 2 2 1 1 1 1 2 3 3 3 1 1 1 2 2 1 1 1 2 3 4 5 6 7 8 9 9 10 10 10 10 10 10
2 2 2 2 2 2 3 3 2 2 2 1 1 1 1 1 2 2 2 3 3 1 1 2 1 1 0 1 1 2 2 3 4 5 6 7 7 7 8 8 8 9 10
2 2 3 3 2 2 3 2 2 2 2 1 1 1 1 1 1 2 2 2 2 3 2 2 2 1 0 1 1 1 1 2 3 3 4 5 6 6 6 6 7 8 8
3 3 3 3 3 3 3 3 2 2 2 2 2 2 2 2 2 2 2 2 2 3 2 2 1 0 1 1 2 2 2 2 2 2 3 4 4 4 4 5 5 6 7
3 3 3 3 3 3 3 3 4 3 3 3 3 3 3 2 2 2 2 2 2 3 3 2 1 0 0 1 1 1 2 2 2 2 2 2 3 3 4 4 5 5 5
2 2 3 3 3 3 3 4 4 4 4 4 4 4 4 3 3 2 2 2 2 2 2 3 2 1 0 0 1 1 1 2 2 2 2 2 2 3 3 3 4 4 4
2 3 3 3 3 3 3 3 3 3 2 3 3 4 4 4 5 4 3 3 3 3 3 3 2 1 1 0 1 1 1 1 1 2 2 3 2 3 2 2 2 3 3
3 3 3 3 3 3 4 4 4 3 3 2 2 3 4 4 5 4 3 4 4 3 3 3 3 2 1 2 2 1 1 1 1 1 1 2 2 3 3 2 1 1 2
1 2 2 3 4 4 5 6 5 4 3 3 3 3 3 3 4 4 4 5 6 5 5 4 3 4 4 4 2 2 2 1 1 1 0 2 1 1 2 2 1 0 0
2 2 2 2 3 4 5 6 6 5 4 3 3 3 2 2 2 2 3 4 4 5 7 6 5 5 5 5 5 4 3 3 2 1 1 1 1 2 2 2 1 1 1
2 2 3 3 3 4 5 5 5 4 3 3 3 4 3 3 2 3 2 2 2 3 5 5 5 6 5 6 6 5 4 2 0 1 1 1 1 2 2 2 1 1 1
2 2 3 3 4 4 4 5 4 3 2 2 3 3 3 3 4 4 4 3 2 3 3 5 5 5 5 7 7 4 3 2 1 2 2 2 1 1 2 2 2 0 1
3 3 3 3 4 4 5 5 5 3 3 2 2 3 4 5 5 5 4 4 4 4 2 1 1 2 3 5 8 7 6 4 2 2 3 3 1 0 1 2 2 2 1
Wind_Direction
67 58 53 56 57 63 68 65 63 59 56 54 57 57 51 47 45 41 33 42 50 55 59 60 59 62 68 66 61 58 55 56 52 47 46 46 43 40 31 27 26 28 26
90 74 61 59 58 66 72 72 71 65 58 58 53 55 52 49 45 43 38 35 41 45 46 49 52 57 61 60 57 55 55 55 53 51 50 49 47 42 34 35 29 32 28
100 94 73 60 63 72 76 75 69 66 63 59 51 50 51 48 48 44 41 36 36 41 44 46 49 53 57 58 57 55 52 53 52 51 50 48 46 45 42 37 33 33 37
103 99 83 68 78 76 77 76 70 66 60 60 52 43 45 46 45 46 46 42 39 37 40 46 50 52 54 55 56 56 55 55 54 51 51 50 48 51 50 44 42 42 40
104 103 95 87 88 82 68 78 72 80 75 69 67 52 41 43 40 48 46 44 43 41 40 45 48 48 48 50 52 52 53 52 51 51 50 50 48 50 49 44 42 42 40
104 105 103 95 93 85 71 73 79 72 79 76 73 59 44 40 44 44 43 45 46 45 43 41 41 41 42 44 47 51 51 50 53 56 54 52 48 46 45 42 44 45 44
106 104 104 97 92 97 102 98 94 81 68 71 77 57 37 41 47 43 40 43 44 43 46 44 42 40 36 38 42 47 48 52 55 56 54 50 46 45 44 42 47 47 49
108 117 113 114 106 108 102 100 102 99 73 64 101 93 39 17 22 31 35 42 36 39 43 44 45 42 37 38 37 42 45 49 51 51 50 47 47 48 46 46 47 48 52
108 118 129 124 123 124 132 130 122 116 119 57 72 124 127 176 344 4 25 34 29 34 35 38 44 40 39 38 37 38 41 44 46 48 49 48 46 48 49 50 50 53 53
99 122 131 131 133 131 139 153 129 129 132 123 59 49 114 153 145 23 358 15 24 29 22 31 34 36 36 36 38 40 42 42 43 45 46 46 45 48 52 51 52 53 51
75 109 133 134 141 146 160 166 135 138 139 148 143 125 95 75 101 141 190 345 13 12 17 23 28 28 31 33 38 42 43 42 40 42 42 42 43 45 53 56 54 53 51
356 89 142 145 158 163 176 178 165 151 146 140 140 147 152 147 158 147 170 229 340 338 6 18 21 18 24 29 39 43 45 46 46 44 42 42 43 47 53 54 54 53 52
256 242 188 180 178 186 185 170 160 164 162 154 165 169 167 174 159 151 146 173 303 330 350 353 355 7 20 34 33 42 45 49 52 51 48 46 46 46 48 49 50 49 49
225 215 197 195 192 180 178 168 159 183 181 181 182 167 162 174 158 160 160 153 127 347 348 302 329 352 2 50 40 46 43 47 51 51 50 49 49 47 46 45 44 43 44
221 198 187 193 190 177 175 168 176 202 183 189 199 190 178 177 159 174 167 166 160 188 287 266 274 303 26 92 56 60 51 49 47 49 48 49 49 47 46 45 42 40 39
222 201 194 193 192 184 175 171 186 207 188 213 195 182 191 176 162 161 168 171 173 176 219 250 237 247 114 100 78 79 63 47 38 42 47 49 47 46 44 42 41 39 39
220 209 199 192 192 196 194 186 201 196 198 225 215 194 207 177 167 169 161 156 161 160 197 263 242 226 132 107 57 68 58 42 25 33 42 46 47 47 44 41 37 37 37
222 208 198 190 196 199 200 195 207 208 207 217 221 207 217 188 187 187 176 177 179 174 173 200 226 245 219 184 116 93 56 46 32 20 40 43 45 45 40 38 35 32 31
225 205 192 198 204 199 198 206 206 215 220 220 213 208 215 187 203 209 198 190 184 169 162 170 195 192 194 148 83 62 57 43 36 31 31 25 32 39 39 38 35 28 26
221 215 205 206 208 203 202 206 201 206 217 223 215 212 211 202 208 206 204 195 168 147 146 157 168 176 185 176 124 125 14 5 352 19 20 18 17 21 16 25 27 25 25
233 218 201 206 209 203 204 199 198 193 195 216 229 223 221 215 212 204 202 187 165 154 154 162 173 179 192 183 197 186 187 328 321 330 358 1 11 15 3 349 347 13 25
240 211 210 208 214 222 214 197 186 186 194 202 224 233 235 219 219 215 206 179 167 166 173 173 189 195 209 201 188 181 168 151 275 242 197 304 9 320 335 340 311 283 44
234 228 232 225 227 229 214 203 193 183 193 208 217 215 229 232 214 201 201 178 188 192 182 176 187 206 203 198 182 188 194 205 229 220 157 280 308 286 311 316 281 216 191
228 232 233 234 235 239 224 214 201 183 188 211 222 215 210 219 205 181 167 168 204 219 211 197 200 210 207 191 186 189 189 183 239 226 173 221 279 286 305 330 310 204 199
229 239 229 220 226 244 229 210 181 169 189 222 234 224 210 211 210 178 162 184 224 260 241 228 225 222 217 197 173 145 152 158 225 248 199 190 242 303 313 299 319 287 197
225 228 234 226 220 232 232 213 180 170 185 217 245 241 228 219 214 189 174 182 215 242 233 234 228 217 198 189 187 185 183 184 192 230 205 184 197 184 299 285 297 310 300
Height
1532 1531 1531 1530 1530 1529 1529 1528 1528 1528 1528 1527 1527 1527 1527 1528 1528 1528 1529 1529 1529 1529 1529 1529 1529 1529 1528 1528 1528 1528 1528 1528 1528 1528 1528 1527 1527 1527 1527 1527 1527 1527 1527
1533 1533 1532 1532 1532 1531 1531 1530 1530 1530 1530 1529 1529 1529 1529 1529 1529 1529 1529 1529 1529 1530 1530 1530 1529 1529 1529 1529 1528 1528 1528 1528 1528 1527 1527 1527 1526 1526 1526 1526 1526 1526 1526
1534 1534 1534 1533 1533 1533 1532 1532 1531 1531 1531 1531 1531 1531 1531 1531 1531 1531 1531 1531 1531 1531 1530 1530 1530 1530 1529 1529 1529 1528 1528 1528 1527 1527 1527 1526 1526 1526 1525 1525 1525 1525 1525
1535 1535 1535 1534 1534 1534 1533 1533 1533 1533 1532 1532 1532 1532 1532 1532 1532 1532 1532 1531 1531 1531 1531 1531 1530 1530 1530 1529 1529 1528 1528 1528 1527 1527 1527 1526 1526 1526 1525 1525 1525 1524 1524
1536 1536 1535 1535 1535 1535 1534 1534 1534 1534 1534 1533 1533 1534 1534 1534 1534 1533 1533 1533 1532 1532 1532 1531 1531 1531 1530 1529 1529 1528 1528 1527 1527 1526 1526 1526 1526 1525 1525 1524 1524 1524 1523
1537 1537 1536 1536 1536 1536 1535 1535 1535 1535 1535 1535 1535 1535 1535 1535 1535 1535 1534 1534 1534 1533 1533 1533 1532 1532 1531 1530 1529 1528 1527 1527 1526 1526 1526 1526 1525 1525 1524 1524 1524 1523 1522
1537 1537 1537 1537 1537 1536 1536 1536 1536 1536 1536 1536 1536 1536 1537 1537 1536 1536 1536 1535 1535 1535 1534 1534 1533 1533 1532 1531 1530 1529 1528 1527 1527 1527 1526 1526 1525 1525 1524 1524 1524 1523 1522
1538 1538 1537 1537 1537 1537 1537 1537 1537 1537 1537 1537 1537 1537 1538 1539 1538 1538 1537 1537 1536 1536 1536 1535 1534 1534 1533 1532 1531 1530 1529 1528 1528 1527 1527 1526 1526 1526 1525 1524 1523 1523 1522
1538 1538 1538 1538 1537 1537 1538 1538 1538 1538 1538 1538 1538 1538 1538 1538 1539 1539 1538 1538 1538 1537 1537 1536 1536 1535 1534 1533 1532 1531 1530 1529 1529 1528 1528 1527 1526 1526 1525 1525 1524 1523 1522
1538 1538 1538 1538 1538 1538 1538 1538 1538 1538 1538 1538 1538 1538 1539 1538 1538 1539 1540 1539 1539 1538 1538 1537 1536 1536 1535 1534 1533 1532 1531 1530 1529 1529 1528 1527 1527 1526 1526 1525 1524 1523 1522
1538 1537 1537 1537 1537 1537 1538 1538 1538 1538 1538 1538 1538 1538 1538 1538 1538 1538 1539 1539 1539 1538 1538 1538 1537 1537 1536 1535 1534 1533 1532 1531 1530 1529 1528 1528 1527 1526 1526 1525 1524 1523 1522
1537 1537 1537 1537 1537 1537 1537 1537 1538 1538 1538 1538 1538 1538 1538 1538 1538 1538 1538 1538 1538 1538 1538 1538 1537 1537 1536 1535 1535 1534 1533 1532 1531 1530 1529 1528 1527 1527 1526 1525 1524 1523 1523
1536 1536 1536 1536 1536 1536 1536 1537 1537 1537 1537 1538 1538 1538 1538 1537 1537 1537 1537 1537 1537 1537 1537 1538 1537 1537 1536 1535 1535 1534 1533 1533 1531 1530 1529 1528 1528 1527 1526 1525 1524 1524 1524
1535 1535 1535 1535 1535 1535 1535 1536 1536 1536 1537 1537 1537 1537 1537 1537 1537 1537 1537 1537 1536 1537 1537 1537 1536 1536 1536 1535 1535 1534 1534 1533 1532 1531 1530 1529 1528 1527 1526 1526 1525 1525 1524
1533 1533 1533 1533 1533 1534 1534 1534 1534 1535 1535 1536 1536 1536 1536 1536 1535 1536 1536 1536 1536 1535 1535 1535 1535 1535 1535 1535 1534 1534 1534 1533 1532 1531 1530 1529 1528 1528 1527 1526 1525 1525 1524
1531 1531 1531 1532 1532 1532 1533 1533 1533 1533 1534 1534 1534 1534 1534 1534 1534 1534 1534 1534 1535 1535 1534 1533 1534 1534 1534 1534 1534 1533 1533 1532 1532 1531 1530 1529 1528 1528 1527 1526 1525 1525 1524
1529 1529 1529 1530 1530 1530 1531 1531 1531 1532 1532 1532 1533 1533 1533 1533 1532 1532 1533 1533 1533 1533 1532 1532 1532 1533 1532 1532 1532 1532 1532 1531 1531 1531 1530 1529 1528 1527 1527 1526 1525 1524 1524
1526 1527 1527 1527 1528 1528 1529 1529 1529 1530 1530 1530 1531 1531 1531 1531 1530 1531 1531 1531 1531 1530 1530 1530 1530 1531 1531 1531 1531 1531 1531 1530 1530 1529 1529 1528 1528 1527 1526 1525 1525 1524 1523
1524 1524 1524 1525 1525 1526 1526 1527 1527 1528 1528 1528 1529 1529 1529 1529 1528 1529 1529 1529 1529 1528 1528 1528 1528 1529 1529 1529 1529 1529 1529 1529 1529 1528 1528 1528 1527 1526 1526 1525 1524 1523 1522
1522 1522 1522 1522 1523 1523 1524 1525 1525 1526 1526 1526 1527 1527 1527 1527 1526 1526 1526 1526 1526 1526 1526 1526 1526 1526 1527 1527 1528 1527 1527 1527 1527 1527 1527 1527 1526 1525 1525 1524 1523 1522 1521
1519 1519 1519 1520 1520 1521 1521 1522 1523 1523 1523 1524 1524 1524 1524 1524 1524 1524 1524 1524 1524 1524 1524 1524 1524 1524 1524 1525 1525 1525 1525 1525 1525 1525 1525 1525 1524 1524 1523 1523 1522 1521 1520
1517 1517 1517 1517 1517 1518 1518 1519 1520 1520 1520 1521 1521 1521 1521 1522 1522 1522 1522 1522 1522 1522 1521 1521 1521 1521 1522 1522 1523 1523 1523 1523 1523 1524 1523 1522 1522 1522 1521 1521 1520 1520 1519
1514 1514 1514 1514 1514 1515 1515 1516 1517 1517 1517 1518 1518 1518 1518 1519 1519 1519 1519 1519 1519 1519 1520 1520 1519 1519 1520 1520 1520 1521 1521 1521 1521 1521 1521 1520 1520 1519 1519 1519 1519 1518 1517
1510 1510 1510 1511 1511 1511 1512 1513 1513 1514 1514 1514 1515 1515 1515 1516 1516 1516 1517 1517 1517 1517 1517 1517 1517 1517 1518 1518 1518 1519 1519 1518 1518 1519 1518 1518 1517 1517 1517 1517 1517 1516 1515
1506 1507 1507 1507 1507 1508 1509 1509 1510 1510 1510 1511 1512 1512 1512 1513 1513 1513 1514 1514 1514 1514 1514 1514 1515 1515 1514 1515 1515 1515 1515 1515 1515 1515 1515 1515 1514 1514 1514 1514 1514 1514 1513
1503 1503 1503 1503 1504 1504 1505 1505 1506 1506 1507 1507 1508 1509 1509 1509 1510 1510 1510 1510 1510 1510 1511 1511 1511 1511 1511 1511 1512 1512 1512 1512 1512 1512 1512 1512 1512 1512 1511 1511 1511 1511 1510